Location: Tamazert
(32.6352°N, 5.2072°W)
Time: 22:15:53
(UTC+00:00)

ATLAS CENTAUR R/B - Pass Details

Date: 22 May 2022
Orbit: 443 x 688 km, 64.6° (Epoch: 07 June)

Event Time Altitude Azimuth Distance (km) Brightness Sun altitude
Rises 01:47:52 0° 329° (NNW) 3,027 5.5 -32.8°
Reaches altitude 10° 01:50:16 10° 328° (NNW) 2,088 4.6 -32.6°
Enters shadow 01:51:09 15° 327° (NNW) 1,743 4.1 -32.5°
